OCN5WW LEPA-EDDM

Flight info

Callsign OCN5WW
Flight time N/A
Altitude 36000
Route MEROS DCT LAPIT DCT CHELY/N0465F320 DCT LUMAS/N0457F340 DCT UNANA/N0468F300 DCT STP DCT RAPED DCT PIGOS DCT EKSID DCT NOSTA DCT NOPMU DCT VAKON DCT TAGIP DCT GUNGO DCT TISAX DCT IVKAL T102 NINUR T101 BETOS BETOS1A
Aircraft A320/M-SDE3FGHIRWY/LB1

Departure

Time N/A
Airport Palma de Mallorca Airport (LEPA)

Arrival

Time 2026-04-30 15:09
Airport Munich Airport (EDDM)
Time Latitude Longitude Altitude Speed Heading
2026-04-30 14:14 43.64736 7.41968 36188 ft 469 kts 51°
2026-04-30 14:15 43.66588 7.45561 36170 ft 469 kts 51°
2026-04-30 14:15 43.70360 7.52891 36174 ft 468 kts 51°
2026-04-30 14:16 43.74136 7.60241 36175 ft 468 kts 51°
2026-04-30 14:16 43.77904 7.67586 36175 ft 468 kts 51°
2026-04-30 14:17 43.81800 7.74793 36183 ft 465 kts 43°
2026-04-30 14:17 43.86658 7.80592 36189 ft 459 kts 34°
2026-04-30 14:18 43.91680 7.85966 36199 ft 459 kts 34°
2026-04-30 14:18 43.98926 7.94698 36205 ft 462 kts 40°
2026-04-30 14:19 44.05875 8.03964 36206 ft 461 kts 40°
2026-04-30 14:20 44.10505 8.10141 36207 ft 461 kts 40°
2026-04-30 14:20 44.17439 8.19404 36211 ft 460 kts 40°
2026-04-30 14:21 44.22055 8.25580 36220 ft 460 kts 40°
2026-04-30 14:22 44.28951 8.34862 36230 ft 458 kts 40°
2026-04-30 14:22 44.35829 8.44158 36236 ft 458 kts 40°
2026-04-30 14:23 44.44947 8.56507 36226 ft 457 kts 40°
2026-04-30 14:24 44.51780 8.65808 36222 ft 456 kts 40°
2026-04-30 14:25 44.60860 8.78206 36227 ft 455 kts 40°
2026-04-30 14:26 44.66878 8.86468 36242 ft 454 kts 40°
2026-04-30 14:27 44.73639 8.95779 36247 ft 453 kts 40°
2026-04-30 14:27 44.78142 9.01989 36263 ft 453 kts 40°
2026-04-30 14:28 44.84883 9.11310 36270 ft 452 kts 40°
2026-04-30 14:28 44.89362 9.17532 36267 ft 452 kts 41°
2026-04-30 14:29 44.98298 9.29970 36266 ft 450 kts 41°
2026-04-30 14:31 45.09416 9.45538 36269 ft 450 kts 41°
2026-04-30 14:31 45.16040 9.54843 36278 ft 448 kts 41°
2026-04-30 14:32 45.22656 9.64187 36281 ft 447 kts 41°
2026-04-30 14:33 45.27047 9.70409 36274 ft 445 kts 41°
2026-04-30 14:33 45.33599 9.79717 36272 ft 443 kts 41°
2026-04-30 14:34 45.37958 9.85910 36295 ft 442 kts 41°
2026-04-30 14:34 45.42301 9.92103 36300 ft 442 kts 42°
2026-04-30 14:35 45.48787 10.01403 36300 ft 440 kts 42°
2026-04-30 14:36 45.53032 10.07693 36304 ft 440 kts 43°
2026-04-30 14:36 45.57222 10.14057 36302 ft 440 kts 43°
2026-04-30 14:37 45.61409 10.20416 36300 ft 439 kts 43°
2026-04-30 14:37 45.65604 10.26747 36296 ft 439 kts 43°
2026-04-30 14:38 45.69805 10.33083 36300 ft 439 kts 43°
2026-04-30 14:38 45.73991 10.39427 36299 ft 438 kts 43°
2026-04-30 14:39 45.78174 10.45790 36307 ft 438 kts 44°
2026-04-30 14:39 45.82341 10.52142 36302 ft 437 kts 43°
2026-04-30 14:40 45.88581 10.61669 36304 ft 437 kts 44°
2026-04-30 14:40 45.92783 10.67850 36301 ft 433 kts 37°
2026-04-30 14:41 45.97834 10.72426 36296 ft 428 kts 26°
2026-04-30 14:41 46.03091 10.76440 36296 ft 428 kts 26°
2026-04-30 14:42 46.08336 10.80484 36291 ft 427 kts 26°
2026-04-30 14:42 46.13569 10.84530 36291 ft 426 kts 26°
2026-04-30 14:43 46.18796 10.88577 36291 ft 427 kts 26°
2026-04-30 14:43 46.24026 10.92620 36292 ft 426 kts 26°
2026-04-30 14:44 46.29251 10.96671 36293 ft 426 kts 26°
2026-04-30 14:44 46.34464 11.00729 36300 ft 426 kts 27°
2026-04-30 14:45 46.39722 11.04652 36297 ft 424 kts 20°
2026-04-30 14:45 46.45445 11.06445 36278 ft 422 kts
2026-04-30 14:46 46.51306 11.06456 36192 ft 421 kts
2026-04-30 14:46 46.57174 11.06471 36193 ft 421 kts
2026-04-30 14:47 46.63036 11.06494 36194 ft 421 kts
2026-04-30 14:47 46.68877 11.05713 36202 ft 422 kts 354°
2026-04-30 14:48 46.74676 11.04628 36206 ft 422 kts 354°
2026-04-30 14:48 46.80503 11.03529 36203 ft 422 kts 354°
2026-04-30 14:49 46.86333 11.02423 36203 ft 423 kts 354°
2026-04-30 14:49 46.92163 11.01308 36205 ft 423 kts 354°
2026-04-30 14:50 46.97772 11.01336 36101 ft 419 kts
2026-04-30 14:50 47.00669 11.01774 35471 ft 418 kts
2026-04-30 14:51 47.06451 11.02663 34116 ft 417 kts
2026-04-30 14:51 47.09335 11.03103 33358 ft 417 kts
2026-04-30 14:51 47.15102 11.03978 31785 ft 416 kts
2026-04-30 14:52 47.17988 11.04422 30927 ft 418 kts 10°
2026-04-30 14:52 47.23785 11.05309 29015 ft 420 kts
2026-04-30 14:52 47.26697 11.05754 27925 ft 423 kts
2026-04-30 14:53 47.32467 11.06639 25736 ft 428 kts
2026-04-30 14:53 47.35450 11.07097 24441 ft 434 kts
2026-04-30 14:54 47.41418 11.08006 22685 ft 426 kts
2026-04-30 14:54 47.47257 11.08891 21093 ft 418 kts
2026-04-30 14:55 47.52999 11.09789 19563 ft 412 kts
2026-04-30 14:55 47.55793 11.10574 18835 ft 408 kts 17°
2026-04-30 14:55 47.60889 11.14021 17249 ft 401 kts 30°
2026-04-30 14:56 47.65673 11.18173 15781 ft 396 kts 30°
2026-04-30 14:56 47.70395 11.22276 14426 ft 390 kts 31°
2026-04-30 14:57 47.72730 11.24296 13740 ft 387 kts 30°
2026-04-30 14:57 47.77664 11.27302 12309 ft 380 kts 21°
2026-04-30 14:58 47.82548 11.30009 10927 ft 375 kts 21°
2026-04-30 14:58 47.84971 11.31362 10521 ft 365 kts 21°
2026-04-30 14:58 47.89581 11.33450 10290 ft 332 kts
2026-04-30 14:59 47.94008 11.33875 10025 ft 306 kts
2026-04-30 15:00 48.00054 11.34401 9432 ft 281 kts
2026-04-30 15:00 48.03923 11.34741 8752 ft 276 kts
2026-04-30 15:01 48.07705 11.35452 7944 ft 270 kts 22°
2026-04-30 15:01 48.08879 11.36068 7678 ft 269 kts 23°
2026-04-30 15:01 48.12988 11.38212 6816 ft 267 kts 23°
2026-04-30 15:02 48.14734 11.39121 6473 ft 265 kts 23°
2026-04-30 15:02 48.16468 11.40026 6142 ft 263 kts 24°
2026-04-30 15:03 48.21538 11.42679 5212 ft 249 kts 24°
2026-04-30 15:03 48.24676 11.44317 5002 ft 228 kts 24°
2026-04-30 15:04 48.27549 11.45813 5020 ft 215 kts 25°
2026-04-30 15:04 48.31403 11.48829 4952 ft 205 kts 56°
2026-04-30 15:05 48.32472 11.54843 4250 ft 204 kts 83°
2026-04-30 15:06 48.32797 11.58939 3715 ft 188 kts 83°
2026-04-30 15:06 48.33084 11.62561 3252 ft 159 kts 84°
2026-04-30 15:07 48.33322 11.65588 2862 ft 137 kts 84°
2026-04-30 15:07 48.33539 11.68358 2462 ft 131 kts 84°
2026-04-30 15:08 48.33752 11.71076 2077 ft 132 kts 83°
2026-04-30 15:08 48.34077 11.75204 1510 ft 131 kts 84°
2026-04-30 15:09 48.34224 11.77173 1476 ft 58 kts 84°
2026-04-30 15:09 48.34419 11.77749 1471 ft 14 kts 53°
2026-04-30 15:10 48.34456 11.77822 1473 ft 2 kts 52°
2026-04-30 15:11 48.34583 11.78252 1474 ft 18 kts 83°
2026-04-30 15:11 48.34612 11.78638 1477 ft 19 kts 83°
2026-04-30 15:12 48.34658 11.79237 1485 ft 20 kts 83°
2026-04-30 15:13 48.34677 11.79504 1485 ft 5 kts 83°
2026-04-30 15:14 48.34681 11.79552 1485 ft 0 kts 83°
2026-04-30 15:16 48.34681 11.79551 1485 ft 0 kts 83°
2026-04-30 15:18 48.34836 11.79697 1475 ft 10 kts 353°
2026-04-30 15:19 48.35034 11.79596 1483 ft 18 kts 342°